Wind_Speed
45 43 42 40 37 32 29 29 27 24 21 20 19 17 16 15 14 13 13 12 11 11 11 11 9 7 6 5 4 5 6 7 8 8 10 11 12 12 12 11 12 13 13 13 13 14 16 17 18 18 19 20 21 21 21 20 21 20 20 21 22 22 24 26 30 35 35 32 32 31 30 31 32 31 31 32 32 33 34 35 36 37 37 37 37
47 46 45 43 40 34 30 30 28 24 21 20 19 17 17 16 15 15 14 13 12 10 9 9 8 8 7 5 5 6 8 9 9 10 11 12 14 14 14 13 14 14 14 14 14 15 16 18 19 20 19 21 22 22 22 22 22 22 21 22 23 23 24 26 30 34 37 35 34 33 32 32 32 31 31 33 34 35 36 37 38 39 40 39 38
49 48 48 47 42 36 32 30 28 25 22 21 19 18 17 16 17 16 14 13 12 10 9 9 9 9 8 7 7 8 10 11 11 12 13 14 15 15 15 15 16 16 15 14 14 15 17 19 20 20 19 20 21 21 22 22 23 24 24 23 24 24 24 26 29 33 36 36 35 35 35 34 34 32 32 34 35 36 37 39 40 42 43 43 41
51 50 51 49 44 39 32 28 26 24 22 21 20 18 17 16 17 16 14 14 13 11 10 10 10 11 10 9 9 10 12 14 15 15 15 15 16 16 16 17 16 16 15 14 15 16 18 19 20 20 19 20 21 21 21 22 24 25 26 25 25 25 24 25 28 31 34 37 37 37 37 36 35 33 33 35 36 36 37 39 41 43 46 46 45
52 52 52 49 46 40 31 27 27 25 23 22 21 18 17 17 19 16 14 15 14 12 12 12 12 12 11 11 11 12 14 16 17 17 16 16 17 17 16 16 16 15 14 14 15 16 18 20 20 20 21 21 21 21 21 22 23 25 26 26 26 26 26 28 30 31 34 37 38 37 37 36 35 33 33 35 38 38 39 40 42 45 48 49 48
52 53 51 46 45 41 34 31 30 26 25 23 21 19 18 19 19 17 15 16 15 14 14 13 13 13 12 12 12 13 15 17 18 18 18 17 16 15 14 14 14 14 14 14 15 16 18 20 21 21 22 21 21 21 21 21 22 24 25 26 26 27 29 29 30 31 33 36 36 37 37 36 35 34 33 34 38 40 41 43 44 46 48 50 51
50 47 44 42 43 40 33 31 29 25 24 23 20 19 19 19 19 17 18 19 18 17 15 14 13 13 13 13 13 14 16 18 19 19 18 16 14 13 13 13 13 14 14 15 16 17 18 19 21 22 22 22 22 22 21 21 22 23 24 25 26 27 28 28 28 30 32 33 34 35 36 35 35 35 34 35 38 40 41 45 49 50 49 51 52
43 42 42 44 45 42 34 29 28 25 23 21 20 20 19 19 17 17 21 23 20 18 16 14 14 14 14 14 15 16 17 18 19 18 16 14 12 12 13 13 14 15 16 17 17 18 18 19 21 22 23 23 23 23 23 22 22 22 23 23 24 25 26 27 28 29 30 32 33 33 34 34 35 35 36 37 39 40 40 43 49 53 52 52 53
42 43 45 47 49 47 37 29 27 26 22 22 22 22 22 21 17 18 25 26 21 18 16 15 16 16 16 16 17 17 17 17 17 15 13 12 11 12 13 14 15 16 17 18 19 19 19 19 20 22 23 24 25 25 24 22 21 22 22 22 23 24 25 26 27 28 29 30 31 32 33 34 35 36 37 37 39 41 41 42 47 52 52 53 55
45 47 48 47 49 47 37 28 27 28 27 25 26 25 23 21 19 23 28 26 22 19 17 17 18 18 18 18 18 17 16 15 13 12 12 12 12 13 15 16 17 18 18 19 20 20 20 19 19 20 22 25 26 27 26 23 21 21 21 22 22 22 23 24 25 26 27 28 30 31 33 35 36 35 36 38 38 40 41 42 46 50 51 52 55
46 46 45 45 45 41 34 28 29 32 30 27 27 26 24 23 23 27 29 26 22 20 18 19 19 18 18 19 18 17 15 13 11 11 12 13 14 16 17 18 19 20 21 21 22 22 21 20 20 20 21 23 25 27 27 25 22 21 21 21 21 21 22 23 24 24 25 27 29 31 33 36 36 34 35 37 37 38 41 43 45 48 49 49 52
44 43 42 43 44 41 35 31 31 35 34 31 31 28 24 26 29 29 28 26 23 21 20 20 20 19 19 20 19 18 16 13 12 13 14 14 16 18 19 20 22 22 23 23 23 24 24 23 22 22 22 23 24 26 27 26 24 22 21 21 21 21 22 22 23 25 26 28 29 31 33 35 35 34 34 34 35 38 42 45 45 46 48 48 50
43 44 44 45 46 43 39 35 34 37 37 36 34 29 26 29 31 29 28 26 24 23 22 21 20 20 20 20 19 17 16 15 15 15 16 16 17 19 21 23 24 25 24 24 25 26 26 26 26 26 25 24 24 24 25 25 24 23 23 23 23 22 22 22 23 25 26 27 29 30 31 33 33 34 32 30 34 40 44 46 46 47 49 50 52
46 46 46 46 46 43 40 37 37 39 39 38 34 27 26 30 31 29 28 27 26 24 23 21 21 21 21 19 18 17 16 16 16 17 18 19 19 20 23 25 26 26 26 26 26 27 27 28 29 29 28 26 25 24 23 23 23 24 24 25 25 24 23 23 23 24 24 26 28 29 31 31 31 32 30 29 33 40 44 46 47 50 52 53 54
46 45 45 45 43 41 37 36 38 41 41 39 33 26 26 29 29 28 29 28 27 25 23 22 22 21 20 19 18 18 17 17 18 19 20 20 21 22 24 25 26 26 27 27 26 25 27 28 30 31 30 27 24 23 23 23 23 24 25 26 26 26 25 24 23 23 24 26 27 29 30 29 28 30 29 29 34 40 43 45 48 52 55 56 56
46 46 47 45 42 40 38 37 38 41 40 35 29 25 26 29 28 27 28 28 27 25 23 23 22 20 19 18 18 19 19 19 20 21 21 22 23 24 25 25 26 27 27 25 23 22 24 28 31 31 28 25 22 21 23 23 23 24 26 26 27 28 26 24 23 24 25 26 27 27 28 28 28 29 29 30 35 41 44 46 49 52 55 55 55
47 48 48 46 41 40 40 37 37 39 38 30 24 25 28 28 27 27 27 28 27 26 24 23 22 20 18 18 18 19 20 21 22 23 23 24 24 24 24 25 27 27 25 23 22 22 23 27 29 27 25 23 21 20 21 22 22 24 25 26 27 28 26 24 24 24 25 26 26 26 27 27 28 28 29 31 35 40 45 47 50 53 54 54 53
46 47 48 45 39 37 40 38 36 38 35 26 23 27 29 26 25 25 26 26 26 25 24 22 21 19 17 17 18 20 22 23 24 24 24 24 24 24 24 25 25 23 22 22 22 22 22 24 24 23 23 22 21 20 21 21 22 23 25 26 27 27 26 25 25 26 26 25 25 25 25 27 28 29 31 33 35 40 45 48 51 53 54 53 52
42 44 46 44 37 35 39 39 35 35 31 23 21 26 27 24 23 24 25 26 25 25 25 24 23 21 19 18 19 21 23 24 24 25 24 23 24 24 24 23 21 21 21 22 21 20 20 21 21 21 22 23 22 21 21 21 22 23 24 25 26 27 26 26 27 28 28 26 25 25 26 28 29 30 31 33 36 41 46 50 53 55 55 54 52
33 37 41 39 34 35 40 40 35 34 31 23 20 24 25 24 25 26 27 26 26 27 29 29 27 25 23 22 22 23 24 24 24 24 23 24 25 24 22 21 20 20 21 20 19 18 19 20 20 21 22 23 23 21 21 20 21 22 23 24 26 27 26 27 28 29 29 28 27 28 29 30 30 30 32 34 37 43 47 50 53 55 56 56 52
28 32 36 35 33 35 40 40 37 37 34 25 21 22 24 26 27 28 27 26 27 31 34 34 33 31 28 24 23 24 25 25 24 24 24 23 22 21 20 19 20 20 20 18 17 17 18 20 21 21 22 21 20 19 18 19 20 21 23 24 25 25 27 28 29 28 27 27 28 28 29 30 30 31 33 35 38 43 48 51 55 56 56 54 48
26 30 33 33 31 33 38 40 39 40 37 28 21 21 24 25 25 25 24 26 31 35 35 33 33 34 30 25 22 24 25 26 24 23 22 21 19 19 19 19 19 19 18 16 16 17 20 21 20 20 19 18 17 17 17 19 20 22 22 22 23 25 27 28 27 25 25 26 26 27 28 30 31 33 34 35 37 43 49 53 56 58 55 45 32
25 28 30 31 31 33 37 39 41 42 39 32 26 23 24 23 23 24 26 29 34 36 34 30 30 32 31 27 24 25 26 25 23 21 20 19 18 19 19 17 17 17 16 16 17 19 20 20 18 18 17 17 16 16 17 18 20 21 21 21 23 25 25 24 23 23 24 26 27 28 29 30 31 33 33 34 36 42 49 53 56 58 53 37 19
23 27 29 30 32 35 37 39 42 44 41 34 28 26 26 25 26 27 28 31 35 37 36 33 29 26 25 24 23 23 24 22 21 20 19 19 18 18 18 16 15 15 16 17 19 20 19 19 18 17 16 15 15 15 16 18 19 20 21 22 23 22 21 21 22 24 26 27 28 29 29 29 31 32 33 32 34 41 48 51 53 55 51 35 18
22 25 27 29 32 34 35 37 40 40 35 29 26 27 28 27 27 29 30 32 35 34 33 31 27 22 21 21 20 20 20 19 19 19 19 19 18 18 17 16 15 16 17 18 19 19 19 18 18 17 16 15 15 15 17 18 19 21 22 21 19 18 19 21 23 25 27 27 28 28 29 29 30 31 31 30 31 37 46 50 52 52 48 37 23
22 24 25 27 28 29 30 30 29 29 28 27 27 27 27 27 28 30 30 30 32 32 30 29 27 24 22 21 19 18 18 17 18 18 19 19 19 19 17 16 16 16 18 18 19 18 18 18 18 17 16 15 15 16 18 20 21 21 19 17 16 18 20 23 24 25 26 26 26 27 28 29 29 29 29 28 28 33 41 48 51 51 47 42 31
17 18 19 20 22 22 20 20 21 22 24 26 26 26 27 28 29 30 29 29 30 29 26 25 24 22 20 18 17 16 16 17 18 19 20 20 20 18 17 16 16 17 17 17 17 17 17 17 17 17 16 16 17 18 19 20 19 17 15 15 17 19 21 23 23 24 24 24 25 27 28 28 29 29 29 28 26 29 37 42 47 49 47 44 38
11 11 12 13 13 13 12 14 17 19 20 23 26 29 30 30 29 30 30 27 25 24 23 21 20 18 16 15 15 14 15 17 18 19 20 20 19 17 17 16 16 16 15 15 15 15 16 16 16 16 17 17 17 18 18 16 14 13 14 17 19 21 21 22 21 21 22 23 25 27 28 29 29 29 29 28 25 27 32 36 41 46 47 44 41
10 9 8 6 6 8 10 13 16 18 20 24 27 29 29 28 28 27 25 21 20 21 21 18 16 15 13 13 13 14 15 17 18 19 19 18 17 16 16 15 15 14 14 14 13 14 14 14 15 16 16 16 15 14 13 12 12 14 17 20 21 21 20 20 20 20 22 23 25 27 29 30 30 30 29 28 25 23 26 31 37 42 45 45 42
11 7 5 5 8 10 13 15 18 20 23 26 26 26 25 25 24 22 20 19 20 20 17 15 14 14 13 13 14 14 15 16 17 18 18 16 15 15 14 13 13 12 12 13 12 12 13 13 14 14 13 13 13 11 11 12 15 18 19 19 19 19 18 18 19 20 22 24 25 27 29 30 30 30 30 29 26 22 21 25 32 38 42 45 44
8 10 11 12 13 13 14 17 19 21 22 22 22 22 22 21 21 20 20 21 20 18 15 15 15 14 13 13 13 13 15 16 16 16 15 14 14 13 12 11 11 11 12 12 12 12 13 13 14 13 12 12 12 12 13 15 17 17 17 16 16 17 17 19 20 22 24 25 26 27 28 29 29 29 29 28 26 23 21 22 27 34 38 42 44
12 14 14 13 14 14 14 15 17 17 18 18 19 20 20 20 21 22 22 20 19 17 16 15 15 14 13 13 13 14 15 15 14 13 12 12 11 11 10 10 10 11 12 12 12 13 13 13 13 13 13 13 13 13 15 15 15 15 15 15 16 17 18 20 22 23 25 26 26 27 27 27 27 27 27 26 25 23 21 20 23 29 34 39 43
15 15 13 12 14 15 14 14 14 15 16 17 19 20 21 21 21 21 20 20 19 18 17 15 14 14 13 13 13 14 14 14 13 11 9 9 10 10 9 9 10 11 11 12 12 12 12 12 12 12 13 13 13 13 13 13 13 14 15 16 17 18 20 22 23 24 25 25 25 25 24 24 25 25 24 24 24 23 21 20 21 24 29 36 40
16 15 12 11 13 14 14 14 14 15 17 18 20 20 20 20 19 19 20 20 19 18 17 15 14 14 13 13 14 14 14 13 12 9 8 8 9 10 10 10 9 10 11 11 11 11 11 11 12 13 14 13 12 12 12 12 13 14 15 17 19 20 22 23 24 24 24 24 23 22 21 21 21 22 22 22 23 22 20 20 20 21 25 31 35
16 14 12 12 14 14 14 15 16 17 18 19 19 19 19 19 19 20 21 20 20 19 17 15 15 14 14 14 14 13 13 12 10 8 7 8 9 10 11 10 9 10 10 11 11 11 11 11 12 13 13 12 11 12 12 13 13 14 15 17 19 21 23 24 24 23 22 21 20 20 19 19 18 18 18 20 21 21 20 20 20 20 20 24 29
15 14 14 14 15 15 15 15 16 16 17 17 18 18 19 20 21 22 21 20 21 20 18 16 15 14 14 14 13 12 11 11 9 8 8 9 9 10 10 10 10 10 10 10 10 11 11 11 11 12 11 11 12 12 13 13 14 15 16 18 20 21 22 22 21 20 19 19 19 18 18 17 16 16 17 18 19 19 19 18 19 20 19 19 21
14 14 15 15 16 16 15 14 14 14 15 16 17 17 18 19 21 22 22 23 23 20 15 13 13 13 12 12 11 9 9 9 9 9 9 9 9 10 10 11 11 11 11 11 11 11 11 11 11 11 11 11 12 13 14 14 15 16 18 20 20 20 20 18 18 17 17 17 18 17 16 15 15 16 17 18 18 18 18 17 17 18 19 18 17
13 14 14 15 16 15 14 13 13 13 14 15 15 16 17 18 19 22 24 25 22 17 12 11 11 12 11 9 8 7 7 8 8 8 8 8 9 10 11 11 12 12 11 11 11 12 11 11 10 10 11 12 13 14 14 15 16 18 19 19 18 17 16 15 15 15 15 16 17 16 15 15 15 16 17 18 18 18 17 16 16 16 17 18 18
13 13 13 13 13 13 13 13 14 15 15 16 16 16 16 17 20 23 24 20 16 12 11 11 10 9 8 7 6 6 6 6 6 7 7 8 9 10 11 11 12 12 11 11 12 12 11 10 10 11 11 13 14 15 15 16 17 18 18 16 15 14 13 13 13 14 15 16 16 16 15 15 15 16 18 19 18 18 17 16 16 16 16 17 18
11 11 10 10 11 11 12 13 14 14 14 15 15 15 16 18 19 19 16 13 11 12 12 10 8 7 6 6 6 5 5 5 6 7 8 9 10 11 12 11 11 11 11 10 11 11 10 10 11 11 12 13 14 15 16 17 17 16 14 13 12 12 12 13 14 14 15 16 16 15 15 15 16 17 19 20 18 18 18 17 16 15 15 15 16
10 10 10 9 9 9 10 11 12 12 13 13 14 14 16 17 16 13 11 11 13 13 10 8 6 6 7 7 6 5 5 6 7 7 8 9 10 11 12 11 11 10 9 9 8 9 9 10 11 12 12 13 14 15 16 15 14 13 11 10 11 11 12 13 14 14 15 15 15 15 15 16 17 18 20 21 19 18 18 18 17 15 14 14 15
10 10 10 9 9 9 9 10 11 12 12 12 12 13 15 16 15 14 14 13 12 11 9 7 6 6 6 7 7 7 7 8 8 8 8 9 10 11 12 11 10 8 8 8 8 8 8 9 11 12 13 14 14 15 14 12 11 10 9 9 9 10 11 12 13 14 14 14 15 15 16 16 17 18 19 20 20 19 18 19 18 17 15 15 15
10 10 10 9 9 9 9 10 11 11 11 12 12 13 15 15 16 16 15 13 10 10 8 8 7 6 5 6 7 8 8 8 8 8 9 9 10 11 11 10 8 8 7 7 7 7 7 9 11 12 13 13 13 13 11 9 8 7 7 7 8 9 10 12 12 13 13 13 14 14 15 16 17 18 19 20 20 19 18 18 19 18 17 16 15
10 9 8 8 8 8 9 10 10 10 11 12 12 13 14 15 16 16 13 10 9 10 10 9 9 7 7 7 8 9 8 7 7 9 9 9 9 10 10 8 7 7 6 5 6 7 8 9 10 11 12 11 10 9 8 7 7 6 6 7 7 8 9 10 11 12 13 13 13 14 15 16 17 18 18 19 20 20 19 18 18 18 17 17 16
7 8 8 8 8 8 9 10 10 11 11 12 12 12 12 12 12 11 10 10 11 12 12 10 9 8 8 9 9 8 8 7 8 9 9 9 8 9 10 9 8 7 7 6 6 7 8 10 11 11 11 10 8 6 6 6 6 6 6 7 7 7 8 9 10 10 11 12 13 14 15 16 17 18 18 19 19 19 18 18 17 17 17 17 17
8 9 9 9 9 9 9 9 10 10 10 9 8 8 7 7 7 7 9 11 12 11 11 11 9 8 9 10 9 8 8 8 9 9 9 9 8 8 10 10 10 9 8 7 7 7 9 11 12 11 10 8 7 6 5 6 6 6 6 7 7 7 8 9 9 9 10 11 12 13 14 15 16 17 18 18 18 18 17 16 17 17 16 15 15
9 8 8 7 7 6 7 7 7 6 5 4 3 3 4 4 5 7 9 10 10 10 11 11 10 9 9 9 9 8 9 9 9 8 8 9 8 7 8 10 10 9 8 7 7 8 10 11 12 11 9 8 7 6 6 6 6 7 7 7 7 7 8 8 9 9 9 10 11 12 12 13 14 15 16 17 17 17 16 16 16 16 15 14 14
7 6 5 5 4 4 4 4 3 3 3 3 3 3 4 4 5 7 9 10 10 10 11 12 11 9 9 10 10 10 11 10 9 7 8 9 8 5 4 6 7 7 7 7 7 9 11 12 12 11 8 7 7 7 7 7 8 8 8 8 8 8 8 8 8 8 8 9 10 11 11 12 12 13 14 16 16 17 16 15 15 16 15 14 13
6 6 6 6 6 5 4 3 3 4 4 5 5 5 5 5 6 7 8 9 9 10 11 11 10 10 10 11 11 11 12 12 10 8 9 9 8 5 4 5 6 6 7 7 8 10 12 13 12 11 8 7 6 7 7 8 8 9 9 9 10 10 9 9 7 7 7 8 9 9 10 10 10 11 12 14 15 15 15 15 14 14 15 15 14
5 6 8 8 8 7 7 6 7 8 8 9 9 9 9 8 8 8 9 9 10 10 10 10 10 10 11 12 12 13 13 12 11 10 9 9 9 8 7 7 7 7 7 8 9 11 12 13 11 9 7 5 5 6 7 7 8 9 9 10 10 10 10 10 8 7 6 6 7 8 8 8 9 10 11 12 13 13 14 14 14 13 13 14 15
5 6 8 9 9 9 8 9 9 10 11 12 13 14 14 14 13 12 11 11 11 12 11 11 11 11 12 13 13 13 13 12 11 11 10 10 10 10 9 8 8 8 8 9 10 12 13 12 10 7 6 5 4 5 6 7 8 10 11 12 11 11 10 10 9 8 6 6 6 6 7 7 7 7 8 10 11 12 13 13 13 13 13 13 13
Wind_Direction
223 224 224 223 220 217 219 222 221 219 219 221 220 214 210 208 207 206 200 193 189 186 183 185 194 210 220 226 244 270 289 304 312 312 309 308 305 303 302 300 298 300 301 298 295 291 288 285 284 285 286 287 288 289 290 291 292 292 290 288 287 288 289 290 292 294 297 302 306 311 315 317 317 319 320 322 325 326 326 328 331 331 328 322 318
225 225 226 225 221 216 218 222 221 218 219 224 223 215 210 207 205 204 198 192 191 190 189 193 206 222 228 238 258 272 281 289 294 295 292 290 290 289 289 292 296 299 298 297 297 296 292 288 286 286 287 287 287 287 287 289 290 290 290 290 290 290 289 289 290 292 294 298 303 307 311 313 313 315 317 319 322 323 322 324 326 328 328 325 319
227 227 227 227 222 216 216 220 220 217 219 226 226 218 212 207 208 209 202 197 201 202 202 207 217 229 235 244 258 270 279 284 285 284 280 280 283 285 285 289 294 296 294 293 296 296 294 291 288 287 286 285 285 285 286 287 288 290 291 291 291 291 291 291 290 290 292 296 299 303 308 310 310 312 313 315 319 319 319 321 323 324 325 325 321
229 229 228 228 224 216 214 218 221 221 223 228 228 221 215 213 213 214 209 207 212 215 215 220 228 236 243 251 261 272 280 281 281 279 277 280 286 289 289 291 292 292 290 291 295 297 296 293 291 288 285 284 285 284 284 286 288 289 289 289 288 289 291 290 289 289 291 293 298 302 304 306 307 309 310 313 316 317 316 317 320 322 323 324 322
230 230 230 229 221 212 208 212 219 222 226 229 230 225 219 217 216 216 216 216 219 222 223 229 235 241 250 258 266 275 279 281 281 279 279 284 290 294 293 292 291 290 290 292 296 298 296 293 291 288 284 283 284 284 284 284 284 284 285 285 285 285 287 288 289 290 289 291 296 301 302 303 304 306 309 313 314 315 315 315 318 321 323 322 321
230 230 229 223 213 206 206 211 213 217 225 227 227 226 221 219 219 221 224 222 223 225 226 233 240 247 256 261 267 274 280 284 282 280 282 286 290 294 295 293 291 290 291 294 296 297 294 292 290 287 283 282 283 286 287 286 285 284 284 283 285 286 288 289 292 293 292 292 296 299 300 302 303 305 309 312 312 313 314 315 316 319 320 321 320
227 225 221 214 208 203 205 211 209 214 230 233 230 230 225 219 220 228 231 227 226 226 227 235 245 253 259 262 269 277 281 281 279 278 280 282 286 294 297 293 288 288 290 294 296 295 294 292 289 285 281 280 283 286 289 291 290 289 287 284 285 287 289 291 294 294 294 295 296 298 300 302 303 304 309 311 309 310 314 315 315 315 317 318 318
221 219 216 214 212 206 203 205 203 209 229 240 239 237 228 221 227 235 233 231 230 228 229 238 250 256 260 265 272 277 277 274 274 275 275 275 284 294 294 290 287 289 292 295 297 294 291 290 287 284 279 278 281 284 287 290 291 290 289 288 286 286 288 291 292 291 292 295 296 298 301 302 303 304 308 310 309 310 314 313 311 312 313 314 314
219 220 218 218 219 214 203 194 197 204 213 224 233 236 232 234 240 232 228 232 234 230 231 242 252 257 263 269 274 274 273 270 269 269 270 275 285 291 293 294 297 300 301 301 299 294 291 290 288 284 280 278 279 281 283 286 287 288 291 292 290 289 288 288 288 289 292 295 297 299 301 300 302 305 308 310 310 309 311 311 309 310 311 311 310
223 224 221 220 220 213 198 186 194 201 200 208 222 230 235 242 237 224 225 233 234 232 235 244 252 259 265 270 271 269 267 267 267 268 273 280 286 290 294 297 301 305 306 305 301 296 292 294 294 289 284 280 279 280 281 280 281 285 290 292 294 294 292 290 290 292 294 295 296 298 299 298 301 305 307 309 310 309 310 312 310 310 310 308 308
227 225 220 216 211 204 198 199 202 200 199 206 216 225 236 241 229 222 227 232 232 233 237 244 251 259 265 266 264 260 260 266 272 277 281 284 287 291 294 296 299 301 305 306 304 299 294 293 295 295 291 286 282 280 279 276 275 280 284 288 293 296 295 293 293 293 294 295 296 297 296 297 301 305 306 308 309 310 314 314 311 309 309 306 305
226 222 217 211 207 206 212 216 206 196 197 203 209 219 233 232 223 221 226 230 232 234 238 244 251 259 262 260 255 254 259 267 273 279 283 286 289 291 291 293 294 295 300 303 302 299 294 290 291 291 291 292 288 283 279 274 271 275 280 284 290 295 296 293 292 294 296 297 297 295 295 297 301 304 305 307 311 314 316 314 312 310 307 304 301
224 221 217 212 210 214 218 215 204 196 196 201 209 219 226 222 218 220 225 230 234 236 239 245 252 257 259 256 255 260 266 271 276 282 285 285 286 287 288 289 290 293 297 299 298 295 291 288 288 285 284 288 290 284 278 273 269 270 275 280 286 291 294 293 292 294 297 297 295 294 296 299 300 302 306 311 315 316 316 315 314 311 307 303 301
227 222 216 211 214 220 220 214 208 204 200 201 209 218 219 217 217 220 224 231 235 238 241 247 252 256 258 258 261 268 275 280 286 288 287 286 285 285 286 287 288 291 294 297 296 293 289 286 285 282 281 287 291 284 275 270 266 267 272 278 283 287 292 295 296 296 297 296 294 295 298 300 300 303 308 313 316 317 317 316 315 312 308 305 304
226 218 210 209 217 225 224 218 213 207 201 204 214 223 221 217 217 219 224 230 236 239 244 248 253 256 259 262 266 272 279 284 287 287 286 285 285 286 287 287 286 288 293 297 297 293 290 286 281 281 284 291 292 284 274 269 266 268 273 278 282 286 291 299 301 299 298 296 295 295 297 299 301 303 307 311 313 316 318 318 317 315 311 307 306
225 219 213 213 221 227 224 219 213 205 201 207 222 230 223 218 218 220 225 231 237 243 247 250 254 257 260 265 270 275 280 284 286 285 284 283 284 286 287 286 286 290 294 297 297 294 291 284 279 283 289 293 292 284 276 272 270 272 275 279 283 287 293 302 303 300 299 297 295 295 297 299 301 302 303 305 309 318 322 319 318 318 313 307 304
228 224 220 220 226 227 221 217 211 203 201 210 227 230 222 220 223 224 228 234 239 245 249 251 254 257 262 269 273 277 281 283 284 283 282 283 284 284 286 287 290 294 296 298 298 295 290 285 284 290 293 291 290 286 279 276 275 275 276 280 285 289 297 304 302 299 300 298 297 298 299 300 301 301 300 300 308 323 326 320 318 318 312 304 300
229 227 224 226 232 230 221 213 204 199 202 217 237 234 225 225 228 229 233 240 245 251 254 254 254 257 263 271 274 278 281 281 281 282 283 283 283 285 290 293 295 297 298 298 297 294 290 288 288 290 289 288 289 287 283 280 278 277 279 282 287 293 301 305 301 301 302 299 298 301 301 301 301 300 300 301 310 327 330 324 321 318 310 303 299
232 232 230 231 233 227 216 207 199 199 207 224 241 236 229 230 234 236 240 245 251 258 260 257 254 254 256 261 268 274 277 278 280 282 283 284 287 293 298 298 298 301 299 296 292 290 289 288 287 285 285 287 289 289 287 282 279 279 281 285 290 297 302 305 305 307 306 303 305 307 306 305 302 300 302 304 313 328 333 330 326 319 310 305 302
241 239 235 233 230 222 213 208 204 206 213 228 242 240 238 240 241 242 247 252 259 266 262 256 252 249 246 251 264 272 273 274 280 284 284 287 293 298 299 298 301 302 298 294 292 290 290 288 286 285 286 288 290 289 287 284 283 284 285 288 293 299 304 307 309 311 310 311 313 313 311 309 306 304 305 306 314 328 334 333 331 325 315 310 306
242 237 232 230 228 222 218 217 213 209 213 230 249 250 249 248 244 245 249 255 261 265 263 258 253 247 242 248 263 269 269 272 280 283 286 291 295 298 298 299 301 299 294 293 293 293 293 290 289 289 289 290 291 289 288 287 286 285 286 291 297 303 308 310 311 313 314 315 316 315 314 316 314 311 309 309 319 331 336 336 336 332 325 318 309
236 232 229 231 230 225 220 217 212 209 215 232 253 258 254 249 246 248 252 255 258 262 262 257 250 245 244 250 263 269 269 273 280 283 288 294 297 298 300 300 298 294 291 290 291 292 293 293 294 295 295 295 294 290 287 286 284 286 291 297 303 307 309 311 313 314 315 316 316 316 318 321 320 318 315 317 327 338 341 341 339 337 334 328 313
231 229 229 231 228 221 217 214 210 211 219 234 254 265 261 253 251 253 254 256 259 262 263 258 249 247 248 252 261 268 269 273 279 283 289 294 297 300 301 299 295 291 287 286 288 290 292 295 297 300 300 298 296 292 289 287 288 292 298 303 306 309 311 312 313 313 315 316 317 319 321 323 324 324 324 325 335 344 346 345 342 341 343 342 326
229 229 230 227 221 218 217 215 214 216 224 238 257 266 263 259 259 257 257 259 261 261 262 258 249 247 252 255 259 266 268 271 277 282 288 294 297 300 300 296 291 286 283 284 287 290 293 298 301 303 304 303 300 297 294 293 295 298 302 305 308 310 312 312 313 314 317 319 320 321 324 327 328 330 330 330 339 350 351 347 345 348 352 355 348
229 228 226 223 219 218 218 218 219 222 230 244 255 256 256 260 263 263 264 267 265 259 256 254 248 250 264 268 265 264 265 269 275 282 289 294 297 299 299 292 283 280 281 285 289 292 297 302 305 308 310 308 304 301 298 297 298 301 305 308 310 311 312 314 316 319 320 321 324 326 328 330 331 334 334 331 338 352 354 350 350 355 359 4 3
228 226 226 225 222 222 224 226 228 233 243 251 253 253 257 263 266 266 268 271 267 259 254 256 258 262 268 267 261 260 263 269 277 285 291 294 296 299 295 284 277 278 281 285 289 294 299 302 305 308 309 307 304 301 299 300 303 307 308 309 310 313 316 317 320 322 323 326 330 332 333 335 334 336 338 334 337 352 357 354 356 360 1 4 8
231 229 229 228 228 229 231 229 230 241 258 264 261 262 265 266 266 268 270 272 269 261 255 258 263 264 262 257 255 259 266 273 281 288 291 293 296 295 286 276 274 278 282 286 291 295 298 300 302 302 302 302 300 298 299 302 304 305 306 309 313 316 318 319 321 324 327 332 336 337 339 340 339 339 341 339 341 356 1 358 359 3 4 3 7
211 210 208 210 217 223 224 224 231 248 265 268 265 267 268 267 266 268 270 270 266 258 254 259 265 263 255 251 255 262 270 279 286 290 292 293 292 286 277 273 274 278 282 287 293 297 298 298 297 297 297 296 295 296 298 300 300 301 307 314 317 317 317 318 321 326 331 336 340 342 344 344 344 344 344 344 348 359 3 1 2 5 7 6 7
156 156 164 183 200 198 201 215 227 235 245 255 262 266 268 267 267 267 265 260 253 251 253 257 259 254 248 251 260 269 278 286 290 291 292 290 284 277 274 275 278 281 286 291 296 298 296 295 295 294 293 292 292 290 289 289 293 301 308 312 313 313 315 319 324 330 336 340 343 345 345 346 346 347 347 347 352 359 1 3 6 8 9 10 10
143 151 182 225 226 207 201 210 219 228 240 252 261 264 265 264 262 256 248 244 246 251 253 250 248 249 252 259 268 276 284 290 292 291 291 286 279 277 278 279 282 285 290 294 295 294 294 295 293 291 290 288 282 275 276 287 295 301 305 309 311 314 318 324 330 336 340 342 344 345 346 345 346 348 349 349 353 359 2 6 10 11 11 13 14
200 218 225 231 232 228 227 230 234 240 246 251 255 258 259 256 248 241 238 240 245 250 250 249 251 254 258 265 274 282 289 292 292 291 289 285 282 281 281 280 282 285 288 291 292 294 297 296 291 289 288 284 274 271 283 297 302 304 308 313 317 320 324 328 334 338 339 341 342 342 343 344 344 346 350 351 353 359 3 6 12 14 14 15 17
237 228 226 232 235 238 240 239 240 242 243 245 248 250 249 245 240 240 242 245 246 248 250 252 254 257 264 273 280 286 291 293 292 291 289 286 285 283 280 278 282 285 286 289 293 298 300 297 291 289 288 284 280 284 294 303 307 310 315 320 322 325 328 331 335 338 337 338 339 338 339 342 342 343 348 352 355 360 5 6 12 17 18 18 19
234 225 229 236 235 235 237 237 237 238 240 245 247 246 244 244 245 247 247 246 246 247 249 252 255 262 271 278 283 289 293 293 291 289 287 285 283 281 280 281 282 284 287 292 298 303 302 299 294 290 289 290 292 297 303 309 314 316 319 323 325 327 331 333 334 335 334 332 333 335 337 339 341 342 346 352 356 2 8 8 9 16 22 22 20
231 224 227 229 228 233 241 242 240 240 243 246 246 245 246 248 249 250 251 250 253 254 252 250 254 262 271 277 283 289 291 289 289 287 281 280 282 284 286 286 283 284 289 297 304 307 305 299 294 291 292 295 299 305 310 313 316 318 320 323 326 328 330 331 330 329 330 329 331 336 338 339 341 344 347 352 356 2 9 12 11 15 24 28 25
216 215 220 222 226 235 242 242 242 242 242 244 244 246 250 252 253 254 255 258 262 260 251 246 251 259 268 276 282 286 287 286 286 283 278 280 285 288 291 291 289 291 296 300 305 306 301 295 292 291 294 298 302 308 313 316 320 322 322 324 327 327 326 326 326 327 330 334 337 340 341 341 344 349 353 355 357 1 8 14 16 17 21 29 30
202 209 217 223 229 236 240 240 241 241 242 246 250 253 256 258 259 258 257 259 259 253 242 240 248 257 266 275 280 282 281 279 276 275 280 290 295 296 296 296 295 297 300 301 301 299 296 295 295 294 297 302 306 311 317 321 325 328 329 329 329 326 324 326 330 333 337 341 344 345 346 347 350 356 1 1 359 1 5 12 18 20 20 23 29
203 213 222 230 236 241 244 244 244 244 246 250 254 258 260 260 259 257 255 255 254 248 237 236 249 261 269 274 275 273 271 270 273 279 289 301 309 308 305 302 300 302 302 298 293 291 291 293 296 298 299 304 310 314 319 325 330 332 333 331 328 326 328 332 336 339 343 349 351 352 354 356 359 3 8 7 4 3 4 7 14 19 21 21 25
214 221 228 236 240 243 248 249 248 250 252 256 261 264 264 261 257 254 253 251 249 247 241 239 251 263 267 264 261 261 264 273 284 295 308 318 320 315 309 306 304 304 300 292 284 285 289 293 298 302 305 309 315 317 321 328 332 331 330 329 327 329 335 339 341 345 351 356 358 359 1 3 6 10 12 11 9 6 5 5 9 14 18 20 22
218 221 227 233 236 240 245 248 252 256 260 265 270 272 272 270 264 257 253 247 242 243 248 251 257 263 261 255 253 257 269 288 305 317 327 328 322 316 311 308 306 304 297 287 280 282 289 296 303 308 312 314 317 321 325 329 329 328 328 329 331 335 341 345 349 356 1 3 3 3 5 8 12 15 16 14 11 9 8 7 9 12 15 19 20
226 226 228 231 233 236 244 251 257 262 267 273 277 279 280 279 271 260 255 253 251 251 254 257 260 257 252 256 263 267 280 304 317 325 330 327 320 314 309 306 305 300 291 282 279 282 290 300 306 310 312 314 317 323 326 326 325 326 328 331 335 342 349 355 360 4 7 8 7 5 6 10 13 17 19 17 14 11 10 10 12 12 15 20 22
229 228 235 242 246 251 259 264 267 272 278 282 283 282 282 279 271 265 268 271 265 257 253 251 249 249 253 266 278 282 291 305 316 326 331 327 318 311 306 303 301 292 277 270 275 283 294 304 308 310 311 313 315 320 323 323 323 326 330 335 342 350 355 358 3 8 10 10 10 8 7 8 11 15 18 18 15 14 13 14 16 17 17 22 25
231 239 250 258 263 268 276 279 280 283 285 283 281 280 278 274 271 274 280 277 264 253 248 242 240 250 264 277 283 285 292 304 316 327 332 326 315 306 301 298 291 275 260 261 273 286 298 305 307 307 307 308 311 315 317 319 322 325 332 339 346 351 355 356 1 7 9 9 9 10 8 6 8 12 16 16 16 14 14 15 18 21 23 25 28
243 250 256 262 267 275 282 282 281 282 280 276 276 275 273 271 272 277 282 277 261 250 247 243 241 251 265 275 281 283 288 298 314 326 329 322 310 298 292 287 275 259 251 258 274 292 304 307 307 308 308 307 309 311 313 315 319 324 333 341 344 347 351 352 354 0 6 7 8 11 10 7 7 10 14 16 15 14 14 15 18 22 25 28 29
252 256 263 272 278 284 285 279 277 279 277 276 277 276 274 276 278 278 276 266 254 253 255 250 243 242 244 255 270 277 279 289 310 322 323 316 302 288 277 264 248 238 241 260 284 300 307 310 314 320 321 317 313 311 310 313 320 325 330 335 339 343 348 349 350 357 3 6 7 10 11 9 8 10 14 15 13 12 12 15 18 21 25 28 30
262 273 283 288 291 290 282 274 273 275 277 281 284 283 282 285 286 279 266 254 253 257 255 247 240 243 249 256 264 270 277 293 312 319 317 311 299 282 263 246 235 235 247 267 290 304 312 320 326 330 330 326 320 316 314 316 321 324 326 329 334 339 343 348 352 356 360 1 5 9 10 8 7 9 12 14 13 11 11 13 17 20 24 28 30
280 287 286 284 284 280 271 268 273 278 281 288 293 294 294 296 292 273 256 251 254 254 245 236 239 253 263 264 264 269 283 299 309 312 312 311 303 281 257 245 243 250 258 271 290 308 321 331 336 337 334 327 321 318 317 317 318 321 323 325 328 332 336 343 350 354 357 359 2 7 9 7 5 6 8 10 12 12 11 11 15 20 25 29 31
281 280 273 270 270 261 254 262 274 279 285 298 307 304 294 280 266 258 254 253 255 249 238 235 246 263 273 274 273 278 290 298 300 302 306 306 300 283 256 244 247 256 263 272 291 311 323 332 337 337 332 322 316 315 317 318 319 320 319 318 319 323 327 333 339 345 350 354 360 6 8 6 5 6 5 4 8 12 14 14 15 17 22 30 33
267 258 246 237 228 226 240 258 266 264 278 300 305 294 274 256 254 260 261 259 256 248 240 241 252 266 276 278 278 282 290 291 285 287 293 292 287 278 252 239 245 258 266 274 292 312 322 328 333 335 328 316 311 316 319 321 323 323 321 320 318 317 318 323 328 334 341 347 356 4 6 4 4 6 4 2 4 9 13 18 19 16 16 24 33
254 238 217 202 200 211 230 249 259 266 276 284 286 281 269 256 256 262 261 257 254 250 247 250 255 262 269 271 271 276 281 280 273 272 279 278 272 263 248 238 243 256 268 281 297 311 318 324 329 331 323 308 307 314 320 325 328 329 327 325 321 316 314 316 318 323 331 340 349 358 1 1 2 4 5 4 4 6 9 17 22 19 15 19 28
247 234 223 220 222 227 236 248 258 261 261 260 264 267 264 258 257 259 256 249 243 239 239 243 249 255 261 262 263 267 273 273 267 264 267 267 265 263 260 252 248 252 265 283 298 308 313 318 322 321 309 300 308 316 318 325 334 338 337 334 327 319 314 311 312 319 328 336 345 353 356 357 359 2 4 4 4 6 8 15 21 22 19 20 25
244 243 242 241 242 246 253 262 267 266 264 262 261 260 260 258 258 257 254 247 240 238 238 241 248 255 259 260 261 264 267 267 263 258 254 253 256 260 261 259 254 252 260 280 298 307 309 310 310 303 287 284 304 317 322 333 346 351 349 344 337 329 323 317 315 318 326 333 342 351 355 355 357 1 4 5 6 8 10 13 19 23 23 24 29
Height
1511 1513 1515 1516 1519 1521 1524 1525 1527 1529 1530 1531 1532 1532 1533 1534 1534 1535 1536 1536 1537 1537 1537 1537 1537 1538 1538 1539 1539 1540 1540 1540 1540 1539 1538 1538 1539 1539 1539 1539 1538 1537 1535 1534 1534 1534 1534 1534 1534 1535 1535 1534 1533 1532 1531 1530 1529 1528 1527 1526 1525 1524 1523 1520 1517 1512 1511 1512 1510 1509 1509 1507 1505 1504 1501 1499 1498 1496 1495 1493 1491 1489 1486 1483 1481
1507 1510 1511 1512 1514 1517 1519 1522 1526 1529 1531 1531 1532 1532 1532 1532 1532 1533 1534 1534 1535 1535 1535 1535 1536 1536 1536 1537 1537 1538 1539 1539 1539 1538 1537 1537 1537 1537 1537 1536 1536 1535 1534 1533 1532 1532 1531 1532 1532 1532 1533 1532 1531 1530 1529 1529 1527 1526 1525 1524 1523 1522 1521 1519 1516 1511 1508 1508 1508 1506 1506 1504 1502 1501 1499 1496 1494 1492 1490 1489 1487 1485 1483 1480 1477
1504 1505 1506 1507 1510 1514 1517 1521 1525 1528 1530 1531 1531 1531 1531 1531 1531 1531 1532 1532 1533 1534 1534 1534 1534 1534 1534 1535 1535 1536 1537 1537 1537 1537 1536 1536 1535 1535 1535 1534 1534 1533 1532 1531 1530 1530 1529 1529 1529 1530 1530 1529 1528 1528 1527 1526 1525 1524 1523 1522 1520 1519 1518 1517 1514 1510 1507 1505 1505 1504 1503 1501 1499 1498 1497 1494 1491 1489 1486 1484 1483 1481 1478 1476 1474
1500 1501 1501 1503 1508 1513 1518 1524 1528 1529 1529 1530 1530 1530 1531 1531 1531 1530 1530 1531 1531 1532 1532 1532 1532 1532 1532 1532 1533 1533 1534 1535 1535 1535 1534 1534 1533 1532 1532 1532 1531 1531 1530 1529 1528 1527 1527 1527 1527 1527 1527 1526 1526 1525 1525 1524 1523 1521 1520 1519 1517 1516 1515 1514 1511 1509 1506 1503 1502 1501 1500 1498 1496 1495 1493 1491 1488 1486 1483 1481 1479 1477 1474 1472 1469
1496 1496 1498 1502 1506 1510 1517 1523 1526 1526 1527 1528 1528 1529 1530 1529 1529 1529 1529 1529 1530 1530 1530 1530 1530 1530 1530 1530 1530 1531 1531 1532 1532 1532 1532 1531 1530 1530 1529 1529 1529 1528 1527 1526 1526 1525 1525 1525 1525 1525 1525 1524 1523 1523 1522 1521 1520 1518 1517 1515 1514 1513 1512 1510 1509 1507 1504 1501 1499 1498 1497 1495 1493 1491 1490 1487 1484 1481 1480 1477 1475 1472 1469 1467 1465
1492 1494 1498 1501 1502 1507 1514 1518 1520 1522 1523 1524 1526 1527 1528 1528 1529 1529 1529 1529 1529 1528 1528 1528 1528 1528 1528 1528 1528 1528 1529 1529 1529 1529 1529 1529 1528 1528 1527 1526 1526 1525 1525 1524 1523 1523 1523 1523 1523 1523 1522 1521 1521 1520 1519 1518 1517 1515 1514 1512 1511 1510 1508 1507 1506 1504 1502 1499 1497 1495 1493 1492 1489 1487 1487 1485 1481 1477 1474 1471 1470 1468 1465 1462 1459
1491 1493 1498 1499 1498 1505 1514 1516 1519 1524 1525 1525 1526 1527 1527 1527 1528 1529 1529 1528 1527 1527 1526 1526 1526 1526 1526 1526 1526 1526 1526 1527 1527 1527 1527 1527 1526 1525 1524 1524 1523 1523 1522 1521 1521 1520 1520 1520 1520 1520 1520 1519 1518 1518 1517 1516 1514 1512 1511 1510 1509 1507 1505 1504 1503 1501 1499 1496 1495 1492 1490 1488 1486 1484 1483 1482 1479 1475 1472 1466 1462 1461 1461 1458 1454
1489 1492 1494 1494 1494 1501 1509 1513 1518 1523 1526 1528 1528 1526 1526 1525 1524 1526 1527 1526 1526 1525 1524 1524 1524 1524 1524 1524 1524 1524 1524 1524 1525 1525 1525 1525 1524 1523 1522 1522 1521 1520 1520 1519 1518 1518 1518 1518 1518 1517 1517 1516 1516 1515 1514 1513 1511 1510 1508 1507 1506 1504 1502 1501 1500 1498 1496 1493 1491 1490 1488 1485 1483 1481 1480 1478 1475 1472 1471 1466 1459 1454 1454 1452 1449
1485 1486 1487 1488 1489 1494 1501 1507 1513 1517 1521 1524 1525 1524 1524 1523 1520 1520 1522 1523 1524 1523 1522 1522 1522 1522 1522 1522 1522 1522 1522 1522 1523 1523 1523 1522 1522 1521 1520 1520 1519 1518 1517 1516 1516 1516 1516 1515 1515 1514 1514 1513 1513 1512 1511 1510 1509 1507 1505 1504 1503 1501 1499 1498 1496 1495 1493 1490 1488 1486 1485 1482 1480 1478 1476 1474 1471 1467 1467 1465 1458 1452 1449 1445 1442
1479 1480 1481 1484 1486 1490 1497 1504 1508 1512 1514 1516 1519 1520 1521 1519 1517 1516 1518 1520 1521 1521 1520 1520 1520 1520 1520 1519 1520 1520 1520 1520 1521 1521 1521 1520 1519 1519 1518 1517 1516 1515 1514 1514 1514 1513 1513 1513 1512 1511 1511 1510 1510 1509 1508 1508 1506 1504 1503 1501 1500 1498 1496 1495 1493 1492 1490 1488 1485 1483 1481 1478 1477 1476 1472 1469 1467 1464 1462 1460 1455 1449 1445 1439 1433
1475 1476 1478 1482 1485 1489 1496 1500 1503 1506 1509 1511 1514 1516 1515 1514 1514 1514 1515 1517 1518 1518 1518 1517 1517 1517 1517 1517 1518 1518 1518 1519 1518 1518 1518 1517 1517 1516 1515 1514 1513 1512 1511 1511 1511 1511 1511 1510 1509 1508 1508 1507 1507 1506 1505 1504 1503 1502 1500 1499 1497 1495 1494 1492 1490 1489 1487 1485 1482 1481 1478 1474 1473 1472 1469 1466 1464 1461 1458 1455 1451 1446 1442 1436 1428
1474 1475 1477 1480 1482 1486 1492 1495 1496 1498 1500 1502 1505 1507 1508 1509 1510 1510 1512 1514 1515 1515 1515 1515 1515 1515 1515 1516 1516 1516 1516 1516 1516 1516 1516 1515 1514 1513 1513 1512 1511 1510 1509 1509 1509 1508 1508 1507 1506 1505 1505 1504 1503 1502 1501 1500 1499 1498 1497 1496 1494 1493 1491 1489 1487 1486 1484 1482 1479 1477 1474 1471 1469 1468 1466 1463 1460 1457 1454 1451 1447 1443 1438 1434 1427
1471 1471 1471 1473 1475 1478 1484 1488 1490 1492 1493 1495 1498 1500 1502 1504 1506 1507 1508 1511 1513 1513 1513 1513 1513 1513 1513 1513 1514 1514 1514 1514 1514 1514 1513 1513 1512 1511 1510 1509 1508 1507 1507 1506 1506 1505 1504 1503 1502 1502 1501 1501 1500 1498 1497 1496 1495 1495 1493 1492 1491 1490 1488 1487 1485 1483 1481 1479 1476 1473 1471 1469 1466 1464 1463 1461 1457 1453 1449 1445 1442 1438 1433 1428 1423
1466 1466 1467 1468 1471 1473 1477 1481 1485 1487 1488 1490 1493 1496 1499 1501 1503 1505 1506 1509 1510 1510 1510 1510 1511 1511 1511 1511 1512 1512 1512 1512 1512 1512 1511 1511 1510 1509 1508 1506 1505 1505 1504 1504 1503 1502 1501 1500 1498 1498 1498 1497 1496 1495 1493 1492 1491 1490 1490 1488 1487 1486 1485 1484 1483 1481 1478 1476 1473 1470 1468 1466 1463 1460 1459 1458 1454 1450 1445 1441 1436 1432 1426 1421 1416
1463 1465 1466 1467 1470 1472 1474 1477 1479 1481 1484 1489 1493 1496 1498 1500 1501 1502 1503 1505 1506 1507 1507 1508 1508 1509 1509 1509 1509 1509 1509 1510 1509 1509 1508 1508 1507 1506 1505 1504 1503 1502 1502 1501 1500 1499 1498 1497 1495 1494 1494 1494 1493 1491 1489 1488 1487 1487 1486 1485 1484 1482 1482 1481 1479 1477 1475 1472 1470 1467 1465 1463 1461 1458 1456 1454 1451 1447 1443 1438 1432 1425 1418 1412 1407
1460 1461 1462 1464 1467 1469 1471 1474 1477 1480 1485 1491 1495 1496 1497 1498 1498 1499 1500 1502 1503 1504 1505 1505 1506 1507 1507 1507 1507 1507 1507 1507 1507 1506 1506 1505 1504 1503 1503 1502 1501 1500 1499 1499 1497 1496 1494 1493 1492 1491 1491 1490 1489 1488 1486 1485 1484 1484 1482 1481 1480 1478 1478 1477 1476 1473 1471 1469 1466 1464 1461 1459 1457 1455 1453 1451 1448 1443 1438 1432 1426 1420 1412 1405 1398
1456 1457 1459 1462 1465 1467 1469 1473 1478 1483 1488 1491 1493 1494 1495 1495 1496 1497 1498 1499 1500 1501 1502 1502 1503 1504 1505 1505 1505 1505 1505 1505 1505 1504 1503 1502 1501 1501 1500 1500 1499 1498 1497 1496 1494 1493 1491 1490 1490 1489 1488 1487 1486 1485 1484 1482 1481 1480 1479 1477 1476 1475 1474 1474 1472 1470 1468 1465 1463 1461 1458 1456 1454 1452 1450 1447 1444 1440 1433 1425 1420 1414 1407 1399 1392
1454 1455 1456 1459 1463 1466 1468 1472 1478 1483 1487 1489 1490 1491 1492 1493 1494 1495 1496 1496 1498 1499 1500 1501 1502 1502 1502 1502 1502 1502 1503 1503 1502 1501 1501 1500 1499 1499 1498 1497 1496 1495 1494 1493 1491 1490 1489 1489 1488 1487 1486 1485 1484 1483 1481 1480 1478 1477 1476 1474 1473 1471 1471 1470 1467 1466 1464 1462 1460 1458 1455 1453 1451 1448 1446 1444 1441 1437 1429 1420 1414 1409 1401 1393 1386
1452 1454 1455 1457 1461 1464 1468 1472 1477 1481 1483 1485 1486 1488 1489 1491 1492 1493 1494 1495 1496 1497 1497 1498 1499 1499 1499 1500 1500 1500 1501 1501 1500 1499 1499 1498 1497 1496 1496 1495 1493 1492 1491 1489 1488 1487 1487 1486 1486 1485 1483 1482 1481 1480 1478 1477 1476 1475 1473 1472 1470 1468 1467 1466 1464 1461 1460 1458 1456 1454 1452 1450 1447 1445 1442 1439 1435 1431 1425 1417 1411 1403 1394 1385 1380
1452 1453 1455 1457 1461 1464 1466 1470 1475 1478 1480 1482 1484 1485 1487 1489 1490 1490 1492 1493 1494 1495 1494 1494 1495 1495 1495 1496 1497 1498 1498 1498 1497 1497 1496 1496 1495 1494 1493 1492 1491 1489 1487 1486 1485 1485 1484 1484 1484 1482 1481 1479 1478 1477 1476 1475 1473 1472 1471 1469 1467 1466 1464 1463 1461 1458 1456 1454 1452 1450 1447 1445 1443 1440 1436 1433 1430 1425 1419 1413 1406 1397 1387 1377 1371
1453 1454 1456 1458 1461 1463 1465 1468 1472 1475 1478 1480 1482 1484 1485 1485 1486 1487 1489 1491 1491 1490 1489 1490 1491 1491 1492 1493 1494 1495 1495 1495 1495 1494 1494 1493 1493 1492 1491 1489 1488 1486 1484 1483 1483 1482 1482 1482 1481 1480 1478 1476 1475 1474 1473 1472 1471 1469 1468 1466 1465 1463 1461 1459 1458 1456 1453 1451 1449 1447 1444 1441 1438 1435 1431 1428 1425 1419 1413 1406 1399 1390 1380 1369 1361
1453 1455 1456 1458 1460 1462 1464 1468 1471 1474 1476 1478 1480 1481 1482 1482 1482 1484 1485 1486 1486 1485 1485 1486 1488 1488 1489 1491 1492 1492 1492 1492 1492 1491 1491 1491 1490 1489 1488 1486 1485 1483 1481 1481 1481 1480 1480 1479 1478 1477 1475 1473 1473 1472 1471 1470 1468 1467 1465 1464 1462 1461 1459 1457 1455 1453 1451 1449 1446 1444 1441 1437 1434 1430 1427 1424 1420 1414 1407 1400 1392 1382 1372 1361 1353
1453 1455 1456 1458 1459 1461 1464 1467 1470 1472 1474 1476 1478 1479 1479 1479 1480 1481 1482 1482 1482 1481 1481 1482 1484 1485 1486 1488 1489 1489 1489 1489 1489 1489 1489 1488 1487 1486 1485 1483 1482 1480 1479 1479 1479 1478 1478 1476 1475 1473 1472 1471 1470 1469 1468 1467 1466 1464 1463 1462 1460 1459 1457 1455 1453 1451 1449 1447 1444 1441 1438 1435 1431 1427 1423 1419 1415 1410 1403 1395 1387 1377 1364 1354 1349
1453 1454 1455 1457 1459 1461 1463 1466 1468 1469 1471 1474 1477 1477 1477 1476 1477 1477 1478 1479 1479 1478 1478 1479 1480 1482 1484 1485 1486 1486 1486 1486 1486 1487 1486 1485 1484 1483 1482 1480 1479 1478 1477 1477 1477 1476 1475 1473 1472 1470 1469 1468 1467 1466 1466 1465 1464 1463 1461 1460 1458 1457 1455 1454 1452 1450 1447 1445 1442 1439 1435 1432 1429 1424 1420 1417 1413 1407 1400 1394 1386 1375 1362 1353 1348
1452 1453 1455 1456 1458 1460 1462 1464 1466 1467 1470 1473 1474 1474 1473 1474 1474 1475 1475 1476 1476 1475 1476 1477 1478 1479 1481 1482 1482 1483 1483 1484 1484 1484 1483 1482 1481 1480 1479 1477 1477 1476 1476 1475 1474 1473 1472 1470 1468 1467 1466 1465 1465 1464 1463 1463 1462 1461 1460 1458 1456 1455 1454 1452 1450 1448 1445 1443 1440 1436 1433 1430 1427 1423 1419 1415 1411 1406 1399 1392 1384 1373 1362 1355 1350
1452 1453 1455 1457 1459 1461 1462 1465 1467 1467 1469 1470 1471 1471 1471 1471 1472 1472 1472 1473 1473 1472 1474 1475 1476 1477 1479 1479 1480 1481 1481 1481 1482 1481 1480 1479 1478 1477 1476 1475 1475 1475 1474 1473 1472 1470 1469 1467 1466 1464 1464 1463 1463 1462 1462 1461 1460 1459 1458 1457 1455 1454 1453 1451 1448 1446 1443 1441 1438 1435 1431 1428 1425 1421 1418 1414 1410 1405 1399 1391 1383 1374 1365 1358 1353
1452 1454 1456 1458 1460 1462 1463 1465 1466 1466 1467 1468 1469 1469 1470 1470 1470 1470 1470 1471 1471 1471 1472 1474 1475 1476 1477 1477 1478 1479 1479 1479 1479 1478 1477 1476 1476 1475 1474 1473 1473 1473 1472 1471 1469 1468 1466 1465 1463 1462 1462 1462 1461 1461 1460 1459 1458 1457 1456 1455 1454 1453 1451 1449 1447 1444 1442 1439 1436 1433 1430 1427 1423 1420 1417 1413 1410 1405 1399 1393 1386 1378 1370 1362 1356
1453 1455 1456 1457 1459 1461 1462 1463 1464 1465 1466 1467 1467 1467 1467 1467 1468 1468 1468 1469 1469 1470 1472 1473 1474 1475 1475 1476 1476 1477 1477 1476 1476 1475 1475 1474 1474 1473 1472 1472 1471 1471 1470 1469 1467 1465 1464 1463 1462 1461 1461 1460 1460 1459 1458 1457 1456 1456 1455 1454 1453 1452 1450 1448 1446 1443 1440 1438 1435 1432 1429 1426 1422 1419 1415 1412 1409 1404 1400 1395 1389 1383 1375 1367 1360
1452 1454 1456 1458 1459 1460 1461 1462 1463 1463 1464 1464 1464 1465 1465 1465 1466 1466 1466 1467 1468 1469 1471 1472 1473 1473 1474 1474 1475 1475 1475 1474 1473 1473 1473 1472 1472 1471 1470 1470 1469 1468 1467 1466 1464 1463 1462 1461 1461 1460 1459 1459 1458 1457 1457 1456 1456 1455 1454 1453 1452 1450 1449 1447 1444 1442 1439 1436 1433 1431 1427 1424 1421 1418 1414 1411 1408 1404 1400 1396 1391 1386 1380 1372 1364
1449 1452 1455 1458 1459 1459 1460 1460 1460 1461 1461 1462 1463 1463 1464 1464 1464 1465 1466 1467 1468 1469 1469 1470 1471 1472 1472 1473 1473 1473 1472 1472 1471 1471 1470 1470 1469 1469 1468 1468 1467 1466 1464 1463 1462 1461 1461 1460 1460 1459 1458 1457 1457 1456 1456 1456 1455 1454 1453 1451 1450 1449 1447 1445 1443 1440 1438 1435 1432 1430 1427 1424 1421 1417 1413 1410 1407 1404 1401 1397 1393 1388 1382 1376 1368
1449 1450 1453 1456 1457 1457 1458 1459 1459 1460 1460 1461 1461 1462 1462 1463 1464 1464 1465 1466 1466 1467 1467 1468 1469 1469 1470 1470 1470 1470 1470 1469 1469 1468 1468 1467 1467 1466 1466 1466 1465 1463 1462 1461 1460 1460 1459 1459 1459 1458 1457 1457 1456 1455 1455 1454 1454 1453 1451 1450 1449 1447 1445 1444 1441 1439 1436 1434 1432 1429 1426 1423 1420 1417 1414 1410 1407 1404 1401 1397 1393 1389 1384 1379 1372
1448 1450 1452 1454 1455 1456 1457 1457 1458 1459 1459 1459 1460 1461 1461 1462 1462 1463 1464 1464 1465 1465 1466 1466 1466 1467 1467 1468 1468 1468 1468 1467 1467 1466 1466 1465 1465 1464 1464 1464 1462 1461 1460 1459 1458 1458 1457 1458 1458 1457 1457 1456 1455 1455 1454 1453 1452 1451 1450 1448 1447 1445 1444 1442 1440 1438 1435 1433 1430 1428 1426 1423 1420 1417 1414 1411 1407 1404 1400 1397 1394 1390 1385 1381 1376
1447 1448 1450 1452 1453 1454 1455 1455 1456 1456 1457 1458 1459 1459 1460 1460 1461 1462 1462 1462 1463 1463 1463 1464 1464 1464 1465 1465 1465 1466 1466 1465 1465 1465 1464 1463 1463 1463 1463 1462 1461 1459 1458 1457 1457 1456 1456 1456 1456 1456 1456 1455 1454 1454 1453 1452 1451 1449 1448 1447 1445 1444 1442 1441 1438 1436 1434 1432 1429 1427 1425 1423 1420 1417 1414 1411 1408 1405 1401 1398 1394 1391 1387 1383 1378
1445 1447 1448 1449 1451 1452 1452 1453 1454 1454 1455 1456 1457 1457 1458 1459 1459 1460 1460 1460 1461 1461 1461 1461 1462 1462 1462 1463 1463 1463 1464 1463 1463 1463 1462 1462 1462 1462 1461 1460 1459 1458 1457 1456 1455 1455 1454 1455 1455 1455 1455 1455 1454 1453 1452 1450 1449 1448 1447 1446 1444 1443 1441 1439 1437 1435 1433 1431 1429 1426 1424 1422 1420 1417 1414 1411 1408 1405 1402 1399 1395 1392 1388 1385 1381
1443 1445 1447 1448 1449 1450 1451 1451 1452 1453 1454 1454 1455 1456 1456 1456 1457 1457 1458 1458 1458 1458 1458 1459 1460 1460 1460 1461 1461 1461 1461 1461 1460 1460 1460 1460 1460 1460 1459 1458 1457 1456 1455 1455 1454 1454 1453 1454 1454 1454 1454 1454 1453 1452 1451 1450 1449 1447 1446 1445 1443 1442 1440 1438 1436 1434 1432 1430 1428 1426 1424 1422 1419 1417 1414 1411 1408 1405 1402 1399 1397 1393 1390 1387 1384
1442 1444 1445 1447 1448 1449 1450 1450 1451 1451 1452 1453 1453 1454 1454 1454 1455 1455 1455 1456 1455 1455 1455 1457 1457 1458 1458 1459 1459 1459 1459 1458 1458 1458 1458 1459 1459 1458 1458 1456 1455 1454 1453 1453 1453 1453 1453 1453 1453 1453 1453 1453 1452 1451 1450 1449 1448 1447 1445 1444 1442 1440 1438 1437 1435 1433 1431 1429 1427 1425 1423 1421 1419 1417 1414 1411 1408 1405 1403 1400 1398 1395 1392 1390 1387
1442 1443 1444 1445 1447 1447 1448 1449 1449 1450 1451 1451 1452 1452 1452 1452 1453 1453 1453 1453 1453 1453 1454 1455 1456 1456 1456 1457 1457 1457 1456 1456 1456 1456 1456 1457 1457 1456 1455 1454 1453 1452 1452 1452 1452 1452 1452 1452 1452 1452 1452 1452 1451 1450 1449 1448 1447 1446 1444 1442 1441 1439 1437 1435 1434 1432 1430 1428 1427 1425 1423 1421 1419 1417 1414 1412 1409 1406 1403 1401 1399 1397 1394 1392 1389
1442 1443 1444 1445 1446 1446 1447 1448 1448 1449 1450 1450 1450 1451 1451 1451 1451 1451 1451 1451 1452 1453 1454 1454 1454 1454 1454 1455 1455 1455 1454 1454 1454 1455 1455 1455 1455 1454 1453 1452 1451 1451 1450 1450 1451 1451 1451 1451 1451 1451 1451 1451 1450 1449 1448 1447 1446 1445 1443 1441 1439 1438 1436 1435 1433 1432 1430 1428 1427 1425 1423 1421 1420 1417 1415 1413 1410 1408 1405 1402 1400 1398 1396 1393 1391
1441 1442 1443 1444 1445 1445 1446 1447 1447 1448 1448 1448 1448 1449 1449 1449 1449 1448 1448 1449 1450 1451 1452 1452 1452 1453 1453 1453 1453 1453 1453 1453 1453 1453 1454 1454 1453 1453 1452 1450 1450 1449 1449 1449 1449 1450 1451 1451 1450 1450 1450 1450 1449 1448 1447 1446 1445 1443 1442 1440 1438 1437 1436 1434 1433 1432 1430 1428 1427 1425 1424 1422 1420 1418 1416 1414 1412 1409 1407 1404 1401 1399 1397 1395 1393
1441 1442 1443 1443 1444 1444 1444 1445 1446 1446 1446 1446 1447 1447 1447 1447 1447 1447 1447 1448 1449 1449 1450 1450 1451 1451 1451 1452 1452 1452 1452 1452 1452 1453 1453 1452 1452 1451 1450 1449 1448 1448 1448 1448 1449 1449 1450 1450 1450 1449 1449 1448 1448 1447 1446 1445 1444 1442 1441 1439 1438 1437 1435 1434 1433 1431 1430 1428 1427 1426 1424 1423 1421 1419 1417 1415 1413 1411 1408 1406 1403 1400 1398 1396 1394
1439 1441 1441 1442 1442 1443 1443 1443 1444 1444 1444 1445 1445 1445 1445 1445 1445 1446 1447 1447 1448 1448 1448 1449 1449 1450 1450 1451 1451 1451 1452 1452 1452 1452 1451 1450 1450 1449 1448 1447 1447 1446 1446 1447 1448 1448 1449 1449 1449 1448 1448 1447 1447 1446 1445 1444 1443 1441 1440 1439 1437 1436 1435 1434 1433 1431 1430 1429 1427 1426 1424 1423 1421 1420 1418 1416 1414 1412 1410 1407 1405 1402 1400 1398 1396
1438 1439 1439 1440 1440 1441 1441 1442 1442 1442 1443 1443 1443 1444 1444 1444 1444 1445 1445 1445 1446 1447 1448 1448 1449 1449 1449 1449 1450 1451 1451 1451 1450 1450 1449 1449 1448 1447 1446 1446 1446 1445 1445 1446 1447 1448 1448 1448 1448 1447 1447 1446 1446 1445 1444 1443 1442 1441 1440 1438 1437 1436 1435 1434 1433 1432 1430 1429 1428 1426 1425 1424 1422 1420 1418 1417 1415 1413 1411 1409 1406 1404 1402 1399 1397
1436 1437 1437 1438 1438 1439 1439 1440 1440 1440 1441 1441 1442 1442 1443 1443 1443 1443 1443 1443 1444 1446 1447 1448 1448 1448 1448 1448 1449 1449 1449 1449 1449 1448 1447 1447 1446 1446 1445 1445 1445 1444 1445 1445 1446 1447 1447 1447 1447 1446 1445 1445 1444 1443 1443 1442 1441 1440 1439 1438 1437 1436 1435 1434 1433 1432 1431 1430 1428 1427 1425 1424 1422 1421 1419 1417 1415 1414 1412 1410 1408 1406 1403 1401 1399
1434 1435 1436 1436 1436 1437 1438 1438 1438 1439 1439 1440 1441 1441 1441 1441 1441 1441 1441 1442 1443 1444 1445 1446 1446 1446 1447 1447 1447 1448 1448 1448 1447 1447 1446 1446 1445 1444 1444 1444 1444 1444 1444 1445 1445 1446 1446 1446 1446 1445 1444 1443 1443 1442 1442 1441 1440 1440 1439 1438 1437 1436 1435 1434 1433 1432 1431 1430 1428 1427 1426 1424 1423 1421 1419 1418 1416 1414 1413 1411 1409 1407 1405 1404 1402
1434 1434 1434 1435 1435 1436 1436 1437 1437 1438 1438 1439 1439 1440 1440 1440 1440 1439 1440 1441 1442 1443 1444 1444 1445 1445 1445 1446 1446 1446 1446 1446 1446 1445 1445 1444 1443 1443 1443 1443 1443 1443 1444 1444 1445 1445 1445 1445 1444 1444 1443 1442 1442 1441 1441 1440 1440 1439 1438 1437 1437 1436 1435 1434 1433 1432 1431 1430 1428 1427 1426 1424 1423 1421 1420 1418 1417 1415 1413 1412 1411 1409 1407 1405 1404
1433 1433 1434 1434 1434 1435 1436 1436 1437 1437 1437 1438 1438 1438 1438 1439 1439 1439 1439 1440 1441 1442 1443 1443 1443 1444 1444 1444 1445 1445 1445 1445 1444 1444 1443 1443 1442 1441 1442 1442 1443 1443 1443 1443 1444 1444 1444 1444 1443 1442 1442 1441 1441 1441 1440 1440 1439 1438 1438 1437 1436 1436 1435 1434 1433 1432 1431 1430 1429 1428 1426 1425 1424 1422 1420 1419 1418 1416 1414 1413 1412 1410 1408 1407 1405
1432 1433 1433 1433 1434 1434 1435 1435 1436 1436 1437 1437 1438 1438 1438 1438 1438 1439 1439 1440 1440 1441 1441 1442 1442 1443 1443 1443 1444 1444 1444 1443 1443 1442 1442 1441 1441 1441 1441 1441 1442 1442 1442 1443 1443 1443 1443 1443 1442 1442 1441 1441 1440 1440 1439 1439 1438 1438 1437 1436 1436 1435 1434 1434 1433 1432 1431 1430 1429 1428 1427 1426 1424 1423 1421 1420 1419 1417 1416 1414 1413 1411 1410 1408 1407
1432 1432 1432 1433 1433 1434 1435 1435 1436 1436 1436 1437 1437 1438 1438 1438 1438 1439 1438 1438 1439 1440 1440 1441 1441 1441 1442 1442 1442 1442 1442 1442 1441 1441 1441 1440 1440 1440 1440 1441 1441 1442 1442 1442 1442 1442 1442 1442 1441 1441 1440 1440 1439 1439 1438 1438 1437 1436 1436 1435 1434 1434 1434 1433 1433 1432 1431 1430 1429 1429 1428 1426 1425 1424 1422 1421 1419 1418 1417 1415 1414 1412 1411 1409 1408
1431 1431 1432 1432 1433 1433 1434 1435 1435 1436 1436 1436 1437 1437 1437 1437 1437 1437 1437 1437 1438 1438 1439 1439 1440 1440 1440 1440 1440 1440 1440 1440 1439 1439 1440 1439 1439 1440 1440 1440 1441 1441 1441 1441 1441 1441 1441 1440 1440 1440 1439 1439 1438 1438 1438 1437 1436 1436 1435 1434 1433 1433 1432 1432 1432 1431 1431 1430 1429 1429 1428 1427 1426 1425 1423 1422 1421 1419 1418 1416 1415 1414 1412 1411 1409
1430 1431 1431 1432 1432 1432 1433 1434 1434 1434 1435 1435 1436 1436 1436 1436 1436 1436 1436 1436 1436 1436 1437 1437 1438 1438 1438 1438 1438 1438 1438 1438 1438 1438 1438 1438 1438 1439 1439 1439 1440 1440 1440 1440 1440 1440 1440 1439 1439 1439 1439 1438 1438 1437 1437 1436 1436 1435 1434 1433 1432 1432 1431 1431 1431 1430 1430 1430 1429 1429 1428 1427 1426 1425 1424 1423 1422 1420 1419 1418 1416 1415 1414 1412 1411
1429 1430 1430 1431 1431 1432 1432 1432 1433 1433 1434 1434 1434 1434 1435 1434 1434 1434 1434 1434 1434 1434 1435 1435 1435 1435 1436 1436 1436 1436 1437 1437 1437 1437 1437 1437 1437 1437 1438 1438 1438 1438 1438 1439 1439 1438 1438 1438 1438 1438 1438 1437 1437 1437 1436 1436 1435 1434 1433 1432 1431 1431 1430 1429 1429 1429 1429 1429 1429 1428 1428 1427 1427 1426 1425 1424 1423 1422 1420 1419 1418 1416 1415 1414 1413